STARLINK-4290, 53006

Orbit data source: Space-Track

STARLINK-4290, 53006 is a payload satellite owned by SpaceX/Seattle (US) in LEO that was launched on Thu, 07 Jul 2022 UTC via an FALCON 9 launch vehicle from the Air Force Eastern Test Range (AFETR). Payload-class satellites include a variety of spacecraft equipped with specific instruments for various scientific and technological missions. These include communications satellites like Starlink; space stations such as the ISS; scientific satellites like the Hubble; Earth observation satellites from companies like Planet Labs, Umbra, and HawkEye 360; GPS; miniature CubeSats for education and research; and military/defense satellites.

Loading next visibility...
Identifier
53006, 2022-076W
Orbit
LEO
Last TLE update
17 hours ago
Origin
Manufacturer
SpaceX/Seattle
Mission
Operational Commercial Communications
Bus & Motor
STARLINK, Unknown motor
Mass
297 kg wet, ~275 kg dry
Launch date (UTC)
2022-07-07 (3 years ago)
Launch vehicle
FALCON 9
Launch site
Air Force Eastern Test Range (AFETR)
Object type
Payload
Rocket body
Debris
Shape & HBR
Box + 1 Pan, 4.4 m
Radar Cross Section
13.562 m², Large (>1 m²)

Expand to show TLE details & history

TLE from 17 hours ago
0 STARLINK-4290
1 53006U 22076W   25210.76946591  .00000372  00000-0  41453-4 0  9991
2 53006  53.2197  14.8500 0001408  91.0648 269.0506 15.08842529169190
Epoch: 2025-07-29T18:28Z
TLE epoch observation values (Epoch: 2025-07-29T18:28:01.854Z)
Latitude
0.00001°
Longitude
150.18399°
Altitude
540.65 km
Speed
7.593 km/s
True Right ascension
00h 59m 24s
True Declination
0° 00' 00"
Sunlit
Object was in full shadow at epoch
Visualization orbit readout
Latitude
-26.69372°
Longitude
124.98892°
Altitude
548.214 km
Speed
7.588 km/s
Apparent Right ascension
19h 52m 06s
Apparent Declination
-66° 01' 17"
Sunlit
Object is in full shadow
Visualization observer readout
Local Sidereal Time
01:21:16
Azimuth
208.694° SW
Elevation
-32.989°
Doppler factor
1
Orbital elements
Apogee altitude
540.954 km
Perigee altitude
539.006 km
Semi-major axis
6,918.117 km
Eccentricity
0.00014
Inclination
53.2197°
RAAN
14.85°
Arg. of periapsis
91.0648°
True anomaly
269.03447°
Mean anomaly
269.0506°
Eccentric anomaly
269.04253°
Mean motion
3.77191 °/min
Orbital period
95.44 mins
BSTAR
0.000041453
Loading maneuver chart data...
Loading SW <> Apogee altitude chart data...
Loading historical data...
Loading historical data...
Loading historical data...
Loading historical data...
Loading historical data...
Loading historical data...
Loading historical data...
|